Wind_Speed
15 17 16 15 15 13 13 14 14 13 12 12 12 12 12 12 12 13 14 12 12 13 13 11 12 12 12 13 13 15 17 19 20 20 19 19 19 19 20 20 19 19 20
15 18 17 16 15 14 14 15 14 12 12 12 13 13 13 12 13 14 13 13 12 11 9 9 11 11 12 12 14 17 19 20 20 19 18 18 19 20 20 20 19 18 18
18 18 17 16 15 15 13 14 14 15 14 15 14 14 14 12 14 13 12 12 11 10 9 8 10 11 11 13 14 18 19 20 19 19 18 18 19 19 18 18 17 17 17
17 18 18 17 15 14 15 15 15 15 14 11 14 12 11 11 11 12 12 12 12 9 9 8 10 11 11 14 16 18 18 19 19 19 17 17 17 17 17 16 15 16 15
18 18 18 17 15 14 15 14 14 15 15 15 14 13 17 15 16 15 13 10 9 7 6 8 10 11 12 15 17 17 17 18 18 17 15 15 15 16 15 14 14 14 13
18 18 18 17 15 15 15 16 16 15 13 11 16 15 15 15 10 11 9 9 8 6 7 8 10 11 14 16 16 16 17 17 17 16 13 13 13 14 12 12 12 11 12
19 19 18 17 15 16 16 17 18 15 15 8 10 14 9 16 9 7 6 8 9 11 11 11 11 12 15 16 15 15 16 15 15 13 11 11 11 11 11 11 11 11 12
18 20 18 17 15 17 18 19 20 17 13 10 16 20 11 10 10 8 7 9 10 10 11 13 13 14 16 16 15 14 14 14 13 11 10 9 10 10 10 10 11 12 12
22 18 17 16 17 17 20 21 22 26 22 18 22 23 15 8 8 9 9 10 11 12 13 15 16 16 17 15 14 13 12 11 11 10 9 8 9 9 9 9 11 10 10
22 18 18 21 18 14 5 12 15 23 19 11 12 9 7 6 6 10 12 12 13 15 16 15 16 17 16 15 12 12 10 8 9 9 9 8 8 8 8 8 8 9 8
23 20 21 22 15 13 16 15 19 19 18 12 10 7 5 5 8 11 13 14 15 17 18 18 16 16 16 13 11 10 9 7 7 8 8 7 6 6 7 7 7 7 8
25 22 25 20 16 15 14 16 15 15 14 11 8 6 4 4 8 13 14 15 17 18 18 17 16 14 13 11 10 8 8 7 7 7 6 6 5 5 6 6 7 7 8
26 26 24 19 17 15 13 12 13 13 11 9 7 5 4 4 8 12 15 16 18 18 19 17 15 12 11 9 8 7 8 7 7 7 5 5 5 5 6 6 7 8 9
28 25 23 20 17 16 14 12 12 12 11 9 7 5 5 6 8 10 14 15 17 17 16 15 14 12 9 8 7 6 6 6 5 5 3 3 4 5 6 7 8 9 10
25 24 21 19 17 15 13 13 13 12 11 10 8 6 6 8 10 10 12 14 15 15 14 12 11 10 8 7 7 7 6 5 3 2 1 2 4 5 7 8 9 10 12
24 22 20 18 17 16 15 14 13 12 10 8 7 6 7 9 10 10 10 12 12 11 11 11 10 9 9 8 7 7 7 5 3 2 1 3 4 6 8 9 10 11 13
24 21 19 18 19 18 16 14 12 10 9 8 8 7 8 9 10 11 11 11 11 10 10 10 10 9 9 8 8 7 6 5 4 4 3 4 5 7 9 10 11 13 14
24 22 21 20 19 17 15 13 11 10 9 9 8 8 9 10 10 11 10 10 9 9 9 9 9 9 8 8 7 7 7 6 5 4 6 7 8 8 10 11 12 14 15
23 22 21 19 18 16 14 13 12 12 11 10 9 10 10 10 10 10 10 9 8 8 8 8 9 8 9 9 9 8 7 7 5 6 8 9 10 10 11 12 13 14 16
24 23 22 20 19 17 17 17 15 14 12 12 13 12 12 11 11 11 11 10 10 11 11 10 9 9 9 9 9 8 8 7 7 8 9 10 11 11 12 13 14 16 17
27 25 24 23 22 21 19 16 14 13 14 14 14 14 13 13 13 12 11 11 10 10 10 10 10 10 11 11 10 9 8 8 9 10 11 11 12 12 13 14 15 17 19
27 27 27 25 24 22 19 17 16 16 16 17 16 14 14 14 14 14 13 12 12 11 11 12 11 11 11 11 11 10 10 11 11 12 12 13 14 14 14 15 16 17 19
28 28 28 27 25 23 21 20 19 18 18 16 15 15 16 16 16 15 15 14 13 13 13 12 12 12 12 12 12 12 12 12 13 14 14 14 15 16 16 16 17 18 20
23 26 24 24 27 25 24 22 20 19 17 16 18 20 18 17 17 16 16 16 15 15 14 14 13 13 13 14 13 14 14 14 15 15 16 17 18 18 18 18 18 20 22
18 25 24 23 25 25 25 23 21 21 20 19 20 19 18 18 17 16 16 16 16 17 17 15 15 15 15 15 15 16 16 16 16 18 18 18 19 20 19 20 21 22 23
13 18 27 28 26 26 25 24 24 23 21 21 20 19 18 19 18 17 17 17 18 19 18 18 17 16 17 17 17 17 18 18 18 19 19 19 20 20 21 21 22 24 25
Wind_Direction
201 184 174 170 163 162 162 162 161 157 153 152 151 146 141 136 136 128 125 126 114 113 104 101 100 98 98 96 93 96 98 102 102 101 99 96 94 91 89 87 87 86 87
178 177 173 168 163 164 168 163 159 158 156 160 153 148 134 138 135 133 132 124 122 118 105 103 100 100 104 103 103 109 109 108 104 99 94 94 92 90 89 89 87 86 82
172 177 175 170 164 167 168 161 162 160 153 154 151 148 149 151 146 143 137 134 121 114 109 106 101 98 99 101 103 109 112 109 104 98 96 94 94 92 91 88 84 82 78
169 178 173 173 168 164 167 167 168 159 160 170 154 148 152 151 148 142 136 131 118 119 121 113 104 105 100 106 111 111 111 107 101 96 93 94 94 91 85 82 78 74 73
167 175 172 173 174 166 171 170 165 166 171 173 156 162 153 153 150 143 136 125 117 91 109 120 118 113 107 110 113 112 109 103 99 95 92 89 87 83 80 77 74 71 71
169 174 172 175 174 174 172 168 170 172 171 186 185 158 155 138 125 129 141 155 144 123 123 126 122 116 112 115 114 112 107 103 97 94 91 87 83 81 77 74 72 71 68
173 171 170 172 176 177 177 174 166 171 166 160 159 178 208 135 151 142 156 160 154 138 138 135 122 119 118 116 114 112 108 102 97 94 88 85 81 76 72 67 63 60 53
174 171 171 169 171 174 180 180 172 175 105 131 132 136 137 120 134 124 146 148 147 147 138 134 131 125 123 120 117 114 109 106 101 96 89 79 77 72 65 59 56 48 41
171 175 171 175 170 179 188 177 178 136 120 112 114 139 122 95 82 111 134 139 148 148 143 141 138 133 126 121 120 117 111 108 103 96 87 78 73 63 60 51 43 40 42
173 176 177 165 161 163 278 170 131 118 138 158 147 146 136 105 100 111 119 136 148 146 143 138 138 133 127 124 126 117 112 105 100 95 86 74 64 57 51 44 44 43 46
175 177 172 165 168 166 127 131 146 149 152 156 153 136 107 88 103 111 124 131 141 143 139 140 139 135 133 136 132 125 124 120 112 104 95 80 69 57 48 42 40 42 41
174 176 175 177 171 162 142 143 150 152 155 155 145 125 102 92 107 119 120 130 140 143 140 141 140 140 138 139 138 138 131 127 119 107 96 85 70 52 46 36 35 31 26
173 178 178 177 166 166 163 163 161 156 155 152 149 138 120 117 122 127 127 138 143 147 144 147 144 147 149 146 147 151 145 144 128 109 94 72 50 41 33 16 17 12 3
175 176 177 176 175 172 167 164 161 159 159 168 168 160 143 135 136 138 135 140 146 150 150 154 156 157 163 161 163 157 153 149 135 101 82 51 25 20 13 3 360 355 349
176 175 180 179 174 173 171 166 164 167 172 178 178 170 159 155 150 149 145 147 153 155 161 163 166 165 172 168 180 175 175 157 139 142 85 14 358 0 355 349 348 343 340
176 177 179 177 172 176 176 174 174 180 183 187 190 186 175 168 161 161 165 159 156 162 171 174 175 177 184 185 188 190 191 170 192 212 321 332 340 341 341 342 339 335 335
175 179 179 177 178 180 182 185 186 189 194 200 205 202 190 178 174 176 181 178 171 173 183 186 189 193 197 205 201 207 202 203 223 252 300 309 324 331 332 337 338 335 334
179 180 183 181 185 186 189 194 199 206 209 210 211 204 201 193 187 190 191 192 189 191 199 198 203 207 210 218 222 225 224 230 246 287 305 317 320 323 328 333 336 334 336
184 186 187 189 192 196 200 210 212 216 213 210 207 205 207 203 199 199 198 203 202 208 214 216 219 222 228 234 235 232 233 241 263 289 304 310 313 317 323 329 331 332 334
189 191 194 198 203 206 210 216 219 217 213 208 204 201 204 205 207 207 205 207 209 211 213 219 227 233 238 243 246 250 251 263 278 287 295 301 304 310 316 318 325 328 330
194 197 200 204 209 213 219 223 226 222 213 209 205 204 208 209 209 210 210 214 218 224 226 228 231 234 236 239 245 247 252 259 268 279 287 295 299 302 306 312 318 323 324
202 203 206 210 213 216 220 224 219 219 212 210 209 209 211 216 215 215 217 221 224 229 233 233 234 237 243 246 247 252 253 258 268 277 285 291 295 300 302 306 310 311 314
206 209 213 216 218 218 220 222 223 219 215 213 210 215 217 220 219 221 222 225 226 228 235 239 240 242 244 247 250 252 254 259 265 273 281 288 292 293 293 297 302 306 308
220 220 216 220 221 220 221 221 222 221 214 212 214 219 220 223 226 226 230 231 233 234 236 240 241 243 245 247 249 254 257 262 269 274 280 285 287 289 292 294 295 298 302
235 234 219 217 213 216 220 221 223 221 215 213 216 218 219 224 227 230 234 236 237 237 237 240 244 245 247 250 251 256 261 264 270 276 279 282 286 287 289 290 293 297 301
246 237 221 226 218 217 220 225 227 229 223 215 217 219 216 219 224 230 233 233 235 236 238 239 241 247 250 252 254 255 260 264 268 272 277 281 282 284 287 291 293 296 299
Height
3159 3162 3165 3167 3170 3172 3174 3176 3177 3178 3180 3182 3183 3185 3186 3187 3189 3190 3190 3192 3192 3192 3193 3194 3195 3195 3195 3195 3194 3194 3194 3194 3195 3196 3196 3196 3196 3196 3196 3196 3196 3196 3196
3159 3162 3164 3168 3170 3172 3174 3175 3177 3179 3181 3182 3184 3185 3186 3189 3190 3191 3192 3193 3194 3194 3195 3195 3196 3197 3197 3197 3197 3197 3197 3198 3199 3199 3199 3199 3199 3199 3198 3199 3198 3199 3198
3159 3162 3165 3168 3170 3173 3175 3177 3178 3180 3181 3182 3183 3186 3187 3189 3190 3192 3193 3194 3195 3196 3196 3197 3197 3198 3198 3198 3199 3199 3200 3201 3201 3202 3202 3202 3202 3202 3202 3201 3202 3201 3200
3159 3163 3166 3168 3171 3173 3175 3177 3179 3180 3182 3182 3183 3186 3188 3190 3191 3193 3193 3195 3196 3197 3198 3198 3198 3199 3200 3200 3201 3202 3203 3203 3204 3204 3205 3204 3204 3204 3204 3204 3203 3202 3202
3159 3163 3166 3169 3171 3173 3175 3177 3180 3181 3182 3183 3184 3186 3187 3190 3189 3192 3194 3196 3197 3198 3198 3199 3200 3201 3201 3202 3203 3204 3205 3206 3206 3206 3207 3207 3206 3205 3206 3206 3204 3204 3203
3160 3163 3166 3169 3171 3174 3176 3178 3179 3181 3183 3185 3186 3186 3187 3186 3189 3193 3195 3196 3198 3199 3199 3200 3201 3202 3203 3204 3205 3206 3207 3207 3208 3208 3209 3209 3208 3207 3208 3207 3206 3206 3204
3160 3163 3166 3169 3171 3174 3176 3178 3180 3182 3182 3185 3186 3189 3189 3188 3191 3194 3196 3197 3199 3200 3200 3202 3203 3204 3205 3206 3207 3208 3209 3209 3209 3210 3211 3210 3210 3209 3208 3208 3207 3206 3204
3160 3163 3165 3168 3171 3174 3176 3179 3180 3182 3183 3185 3186 3191 3193 3192 3193 3192 3196 3198 3199 3200 3201 3203 3204 3206 3207 3208 3209 3210 3210 3211 3211 3212 3212 3212 3211 3210 3210 3209 3207 3206 3205
3159 3163 3165 3168 3171 3173 3175 3178 3179 3182 3184 3188 3189 3195 3196 3195 3192 3192 3196 3198 3199 3200 3202 3204 3205 3207 3208 3210 3212 3212 3212 3213 3212 3213 3213 3213 3212 3211 3210 3210 3208 3207 3207
3159 3162 3165 3169 3172 3175 3175 3175 3179 3182 3186 3190 3191 3193 3195 3195 3194 3196 3196 3198 3199 3201 3203 3205 3207 3208 3209 3211 3213 3213 3213 3213 3213 3213 3213 3213 3213 3212 3212 3211 3210 3210 3209
3158 3162 3166 3170 3173 3177 3178 3179 3181 3184 3187 3189 3191 3192 3194 3195 3195 3196 3198 3198 3200 3202 3203 3206 3208 3209 3211 3213 3214 3214 3215 3215 3215 3215 3215 3215 3215 3214 3213 3213 3212 3211 3209
3157 3162 3167 3170 3174 3177 3179 3181 3183 3185 3187 3189 3192 3193 3194 3194 3195 3197 3198 3198 3200 3203 3205 3207 3209 3211 3212 3213 3215 3215 3215 3215 3216 3216 3216 3216 3216 3215 3214 3213 3212 3211 3210
3157 3162 3167 3170 3174 3177 3180 3182 3184 3185 3188 3190 3192 3193 3194 3195 3195 3197 3199 3201 3202 3204 3205 3208 3209 3211 3213 3213 3214 3215 3215 3216 3216 3215 3216 3216 3216 3214 3213 3214 3212 3211 3210
3158 3162 3167 3170 3173 3176 3179 3182 3184 3186 3189 3191 3193 3194 3195 3196 3196 3198 3200 3202 3203 3205 3206 3208 3210 3211 3213 3214 3215 3215 3215 3215 3216 3214 3216 3215 3215 3215 3214 3213 3212 3210 3209
3158 3162 3167 3170 3173 3176 3179 3182 3184 3187 3190 3192 3193 3195 3196 3197 3197 3198 3201 3203 3205 3206 3207 3208 3210 3211 3212 3213 3214 3214 3215 3215 3215 3216 3215 3215 3215 3214 3213 3212 3211 3210 3209
3158 3162 3167 3170 3173 3176 3179 3182 3185 3187 3189 3191 3193 3194 3196 3196 3197 3198 3200 3203 3204 3206 3207 3208 3209 3210 3211 3212 3213 3213 3214 3214 3215 3215 3214 3215 3214 3214 3213 3212 3211 3210 3208
3158 3162 3167 3170 3173 3176 3179 3182 3184 3186 3188 3190 3192 3194 3195 3196 3197 3198 3200 3202 3203 3205 3207 3208 3209 3209 3210 3212 3212 3213 3213 3213 3214 3215 3214 3214 3214 3213 3213 3211 3210 3209 3207
3158 3162 3166 3170 3173 3176 3178 3181 3183 3185 3187 3189 3191 3192 3194 3195 3196 3198 3199 3201 3202 3204 3205 3206 3207 3208 3209 3210 3210 3211 3212 3213 3214 3213 3214 3213 3213 3212 3212 3210 3209 3207 3205
3157 3161 3166 3169 3172 3175 3177 3180 3182 3184 3186 3188 3190 3192 3193 3195 3196 3198 3199 3200 3201 3203 3204 3205 3206 3207 3208 3209 3210 3210 3211 3212 3212 3212 3212 3212 3211 3211 3210 3209 3207 3205 3203
3156 3160 3164 3168 3171 3173 3176 3179 3181 3183 3185 3187 3189 3190 3192 3194 3196 3197 3198 3199 3200 3201 3203 3204 3205 3206 3207 3208 3208 3209 3210 3210 3210 3210 3210 3210 3209 3208 3207 3206 3204 3202 3201
3153 3157 3161 3165 3168 3171 3175 3178 3180 3182 3184 3186 3187 3189 3191 3193 3194 3195 3196 3197 3198 3199 3201 3202 3203 3204 3204 3205 3206 3206 3207 3207 3208 3207 3207 3207 3206 3205 3205 3204 3202 3201 3199
3151 3155 3158 3162 3165 3169 3173 3176 3178 3179 3181 3183 3186 3187 3189 3191 3192 3193 3194 3195 3196 3197 3197 3199 3200 3200 3202 3202 3203 3203 3204 3205 3205 3204 3204 3204 3203 3202 3202 3201 3199 3198 3196
3148 3152 3156 3159 3163 3166 3170 3172 3175 3176 3179 3182 3184 3186 3187 3188 3189 3190 3191 3192 3193 3194 3195 3196 3197 3197 3198 3199 3200 3201 3201 3201 3201 3201 3200 3200 3199 3198 3198 3197 3196 3195 3193
3148 3150 3153 3156 3159 3163 3166 3169 3172 3175 3178 3180 3181 3182 3183 3184 3185 3186 3188 3189 3190 3191 3191 3192 3193 3194 3195 3195 3196 3196 3197 3197 3197 3197 3197 3196 3195 3195 3195 3194 3192 3191 3189
3145 3147 3150 3152 3155 3158 3162 3166 3168 3171 3174 3175 3177 3178 3179 3181 3182 3183 3184 3185 3186 3187 3188 3189 3189 3189 3190 3191 3192 3192 3192 3193 3193 3192 3192 3193 3192 3191 3190 3189 3188 3186 3185
3141 3142 3145 3148 3151 3154 3157 3161 3164 3167 3170 3171 3172 3174 3176 3177 3178 3180 3180 3180 3181 3182 3183 3184 3184 3185 3186 3187 3187 3188 3188 3188 3188 3188 3187 3187 3187 3186 3185 3184 3183 3181 3180